Location: *
(44.1392°N, 4.8079°E)
Time: 22:40:43
(UTC+00:00)

Meteor 1-29 - Pass Details

Date: 21 June 2021
Orbit: 434 x 457 km, 97.7° (Epoch: 01 August)

Event Time Altitude Azimuth Distance (km) Brightness Sun altitude
Rises 02:16:52 0° 7° (N) 2,479 7.8 -13.8°
Reaches altitude 10° 02:18:57 10° 2° (N) 1,597 6.6 -13.5°
Maximum altitude 02:22:16 49° 287° (WNW) 589 3.3 -13.2°
Enters shadow 02:24:04 23° 221° (SW) 997 4.0 -13.0°
